Waarnemingen

Advertentie
Mijn weer
Bastia, Frankrijk (7790): temperatuur & dauwpunt: 17.05.2018 20:00:00 - 23.05.2018 20:00:00 (CEST)Bastia, Frankrijk (7790): temperatuur 5cm: 17.05.2018 20:00:00 - 23.05.2018 20:00:00 (CEST)Bastia, Frankrijk (7790): temperatuur -20cm & temperatuur -100cm: 17.05.2018 20:00:00 - 23.05.2018 20:00:00 (CEST)Bastia, Frankrijk (7790): windsnelheid & windstoten: 17.05.2018 20:00:00 - 23.05.2018 20:00:00 (CEST)Bastia, Frankrijk (7790): windrichting: 17.05.2018 20:00:00 - 23.05.2018 20:00:00 (CEST)Bastia, Frankrijk (7790): luchtdruk: 17.05.2018 20:00:00 - 23.05.2018 20:00:00 (CEST)Bastia, Frankrijk (7790): zicht: 17.05.2018 20:00:00 - 23.05.2018 20:00:00 (CEST)Bastia, Frankrijk (7790): Zonneschijnduur: 17.05.2018 20:00:00 - 23.05.2018 20:00:00 (CEST)Bastia, Frankrijk (7790): neerslag: 17.05.2018 20:00:00 - 23.05.2018 20:00:00 (CEST)
Datum & Tijd tt [°C] td [°C] tt 5cm [°C] tt -20cm [°C] tt -100cm [°C] ff [km/u] ff [kn] fx [km/u] fx [kn] dd ppp [hPa] vv [km] sd [min] rr [mm]
23.05.2018 20:00:00 20,9 16,5 20,4 20,2 17,9 7 4 16 9 ZO 1016,9 19 54 0,0
23.05.2018 19:00:00 22,3 16,1 22,9 20,0 17,9 10 5 29 16 ZO 1016,2 55 55 0,0
23.05.2018 18:00:00 24,2 13,4 28,6 19,9 17,9 8 5 39 21 WZW 1015,9 51 60 0,0
23.05.2018 17:00:00 23,9 14,6 26,4 19,8 17,9 21 12 41 22 NW 1015,9 43 58 0,0
23.05.2018 16:00:00 23,8 14,8 25,8 19,7 17,9 24 13 44 24 NW 1016,1 48 49 0,0
23.05.2018 15:00:00 23,6 14,6 26,2 19,6 17,9 27 14 40 22 NW 1016,6 46 49 0,0
23.05.2018 14:00:00 23,3 15,4 27,9 19,6 17,9 28 15 41 22 NNW 1016,8 32 57 0,0
23.05.2018 13:00:00 23,3 15,1 23,6 19,5 17,9 19 10 32 18 N 1016,8 33 41 0,0
23.05.2018 12:00:00 22,3 16,1 23,4 19,5 17,9 18 10 32 17 N 1016,7 60 17 0,0
23.05.2018 11:00:00 21,3 14,9 23,9 19,6 17,9 18 10 33 18 NNW 1016,7 60 44 0,0
23.05.2018 10:00:00 20,7 15,3 19,4 19,6 17,9 10 6 20 11 NW 1016,5 60 16 0,0
23.05.2018 09:00:00 20,1 15,3 20,0 19,6 17,9 16 9 24 13 NNW 1016,3 20 60 0,0
23.05.2018 08:00:00 19,2 15,5 13,8 19,7 17,9 3 2 12 6 ONO 1015,8 20 38 0,0
23.05.2018 07:00:00 15,9 13,9 13,0 19,7 17,9 6 3 12 7 ZW 1015,3 60 6 0,0
23.05.2018 06:00:00 16,1 14,5 13,2 19,8 17,9 6 3 12 7 WZW 1014,8 60 0 0,0
23.05.2018 05:00:00 15,7 14,4 13,6 19,8 17,9 7 4 13 7 ZZW 1015,0 60 0 0,0
23.05.2018 04:00:00 15,6 14,5 13,7 19,8 17,9 8 4 13 7 ZW 1014,9 60 0 0,0
23.05.2018 03:00:00 15,7 15,1 13,6 19,9 17,9 6 3 11 6 WZW 1014,9 15 0 0,0
23.05.2018 02:00:00 16,2 15,4 14,3 19,9 17,9 4 2 5 3 Z 1015,3 7 0 0,0
23.05.2018 01:00:00 16,4 15,4 14,4 19,9 17,8 6 3 19 10 WZW 1015,3 6 0 2,8
23.05.2018 00:00:00 16,2 15,1 14,5 19,9 17,9 11 6 20 11 NNW 1015,4 2,6 0 0,8
22.05.2018 23:00:00 17,1 16,1 15,3 19,9 17,8 7 4 12 7 NNW 1015,2 20 0 0,0
22.05.2018 22:00:00 17,1 16,1 15,6 19,9 17,9 5 3 9 5 NW 1014,6 36 0 0,0
22.05.2018 21:00:00 17,3 16,5 15,7 19,9 17,9 3 2 10 5 W 1014,1 20 0 0,4
22.05.2018 20:00:00 17,5 16,5 16,5 19,9 17,8 4 2 9 5 ZZO 1013,9 20 13 0,6
22.05.2018 19:00:00 17,5 16,7 16,4 19,8 17,8 4 2 10 5 ZO 1013,5 2,2 0 3,0
22.05.2018 18:00:00 17,7 16,6 16,5 19,8 17,8 5 3 14 8 N 1013,4 9 0 1,6
22.05.2018 17:00:00 17,3 16,3 16,0 19,8 17,8 9 5 16 9 NW 1013,5 3,4 0 4,1
22.05.2018 16:00:00 17,1 15,6 15,7 19,7 17,8 13 7 27 14 WNW 1013,4 11 0 0,2
22.05.2018 15:00:00 17,7 15,9 15,9 19,7 17,8 8 4 24 13 Z 1013,2 20 0 1,0
22.05.2018 14:00:00 19,0 17,0 17,5 19,7 17,8 4 2 18 10 ZO 1013,1 9 0 1,2
22.05.2018 13:00:00 19,9 16,9 21,3 19,7 17,8 13 7 36 20 ONO 1012,6 47 0 0,0
22.05.2018 12:00:00 19,8 17,0 23,0 19,7 17,8 10 6 20 11 NO 1012,5 56 0 0,0
22.05.2018 11:00:00 19,8 17,2 19,7 19,7 17,8 9 5 33 18 NNO 1012,5 48 4 0,0
22.05.2018 10:00:00 18,8 16,6 18,8 19,8 17,8 6 3 12 6 ONO 1012,5 51 6 0,0
22.05.2018 09:00:00 17,9 16,9 15,9 19,8 17,8 3 1 10 5 N 1012,3 27 22 0,0
22.05.2018 08:00:00 16,4 16,1 14,3 19,9 17,8 5 3 9 5 W 1011,9 12 0 0,2
22.05.2018 07:00:00 15,7 15,4 14,0 19,9 17,8 3 2 22 12 NO 1011,6 3,7 0 1,4
22.05.2018 06:00:00 15,8 15,3 14,0 20,0 17,8 3 1 6 4 Z 1011,5 6 0 0,8
22.05.2018 05:00:00 15,9 15,3 14,0 20,0 17,8 2 1 13 7 O 1011,1 12 0 0,2
22.05.2018 04:00:00 16,1 15,5 14,1 20,1 17,8 0 0 8 4 N 1011,4 16 0 0,0
22.05.2018 03:00:00 16,1 15,5 14,6 20,1 17,8 0 0 6 3 N 1011,6 25 0 0,0
22.05.2018 02:00:00 16,1 15,6 13,8 20,1 17,8 4 2 9 5 OZO 1011,9 13 0 0,0
22.05.2018 01:00:00 16,1 15,5 12,5 20,2 17,8 4 2 8 4 WZW 1012,0 22 0 0,0
22.05.2018 00:00:00 16,6 15,8 13,1 20,2 17,8 0 0 5 3 N 1012,2 28 0 0,0
21.05.2018 23:00:00 17,1 16,5 15,3 20,2 17,7 3 2 6 3 WZW 1012,3 17 0 0,2
21.05.2018 22:00:00 17,0 16,2 15,4 20,2 17,7 4 2 6 3 N 1012,2 18 0 0,0
21.05.2018 21:00:00 16,9 15,9 15,4 20,2 17,7 0 0 8 4 N 1011,9 14 0 2,3
21.05.2018 20:00:00 17,0 16,0 15,8 20,2 17,7 3 2 10 5 O 1011,8 17 0 0,8
21.05.2018 19:00:00 17,3 16,3 15,7 20,2 17,7 4 2 19 10 ZO 1011,6 8 0 3,2
21.05.2018 18:00:00 18,0 16,3 16,0 20,1 17,7 12 7 33 18 ZO 1011,6 7 0 0,6
21.05.2018 17:00:00 19,8 15,0 20,2 20,1 17,7 16 9 29 16 ZO 1011,4 59 0 0,0
21.05.2018 16:00:00 20,1 15,7 20,2 20,1 17,7 9 5 20 11 ZO 1011,4 60 0 0,0
21.05.2018 15:00:00 20,2 15,8 18,0 20,0 17,7 5 3 16 9 ZO 1011,9 60 0 0,0
21.05.2018 14:00:00 18,8 16,8 17,0 20,0 17,7 5 3 22 12 ZO 1012,6 13 0 1,4
21.05.2018 13:00:00 20,4 17,2 20,0 20,0 17,7 15 8 24 13 OZO 1012,8 20 0 0,0
21.05.2018 12:00:00 21,8 16,1 24,0 20,0 17,7 4 2 11 6 ZO 1012,6 20 0 0,0
21.05.2018 11:00:00 21,1 16,1 24,7 20,1 17,7 8 4 28 15 ONO 1012,3 46 3 0,0
21.05.2018 10:00:00 21,7 16,4 24,1 20,2 17,7 8 5 16 9 N 1012,4 39 37 0,0
21.05.2018 09:00:00 21,5 16,9 21,0 20,2 17,6 12 6 18 10 N 1012,3 60 60 0,0
21.05.2018 08:00:00 18,2 14,9 15,4 20,3 17,6 5 3 10 5 ZZW 1012,3 37 16 0,0
21.05.2018 07:00:00 16,4 12,6 12,6 20,4 17,6 8 4 12 6 WZW 1012,5 29 40 0,0
21.05.2018 06:00:00 15,4 11,8 12,3 20,5 17,6 7 4 9 5 WZW 1012,5 26 0 0,0
21.05.2018 05:00:00 15,4 11,6 11,6 20,6 17,6 10 5 19 10 ZW 1012,2 20 0 0,0
21.05.2018 04:00:00 14,2 11,7 11,3 20,6 17,6 8 5 11 6 ZZW 1012,3 20 0 0,0
21.05.2018 03:00:00 15,2 12,1 11,5 20,7 17,6 5 3 9 5 ZW 1012,4 20 0 0,0
21.05.2018 02:00:00 15,0 12,1 11,8 20,7 17,6 7 4 13 7 ZW 1012,8 20 0 0,0
21.05.2018 01:00:00 15,7 12,1 12,0 20,7 17,6 6 3 11 6 WZW 1013,3 20 0 0,0
21.05.2018 00:00:00 16,4 13,3 13,4 20,7 17,6 8 4 11 6 ZW 1013,4 43 0 0,0
20.05.2018 23:00:00 17,1 14,2 13,8 20,7 17,6 8 4 11 6 ZW 1013,6 31 0 0,0
20.05.2018 22:00:00 18,4 14,5 15,1 20,6 17,5 8 4 11 6 WZW 1013,8 20 0 0,0
20.05.2018 21:00:00 19,4 15,1 16,1 20,5 17,5 7 4 14 8 WNW 1013,5 29 10 0,0
20.05.2018 20:00:00 20,3 15,5 19,1 20,5 17,5 9 5 19 10 N 1012,9 50 30 0,0
20.05.2018 19:00:00 22,3 14,9 21,8 20,3 17,5 9 5 22 12 NNO 1012,4 51 27 0,0
20.05.2018 18:00:00 21,7 15,5 21,7 20,1 17,5 6 3 12 6 NNO 1012,4 20 0 0,0
20.05.2018 17:00:00 23,0 14,8 26,1 20,0 17,5 4 2 12 6 O 1012,7 20 0 0,0
20.05.2018 16:00:00 22,7 15,8 26,5 19,8 17,5 9 5 19 10 OZO 1013,3 56 21 0,0
20.05.2018 15:00:00 24,5 14,9 33,4 19,8 17,5 8 5 19 10 O 1013,7 55 57 0,0
20.05.2018 14:00:00 24,1 14,8 32,9 19,7 17,5 9 5 22 12 ONO 1014,0 2,6 56 0,0
20.05.2018 13:00:00 23,3 15,4 33,4 19,7 17,5 10 6 35 19 NNO 1014,2 25 60 0,0
20.05.2018 12:00:00 22,8 16,1 31,7 19,7 17,5 9 5 19 11 NNO 1014,5 20 60 0,0
20.05.2018 11:00:00 22,5 15,6 29,1 19,8 17,5 10 5 18 10 NNO 1014,4 20 60 0,0
20.05.2018 10:00:00 22,3 14,7 25,2 19,9 17,5 6 4 29 15 NNO 1014,3 55 54 0,0
20.05.2018 09:00:00 21,4 13,1 20,1 20,0 17,5 9 5 14 8 N 1014,6 60 60 0,0
20.05.2018 08:00:00 19,0 11,8 14,5 20,0 17,4 8 5 17 9 ZW 1014,4 58 60 0,0
20.05.2018 07:00:00 16,2 11,6 10,7 20,2 17,5 10 6 16 9 ZW 1014,2 56 42 0,0
20.05.2018 06:00:00 14,3 10,5 9,0 20,2 17,4 9 5 12 7 ZW 1014,2 20 0 0,0
20.05.2018 05:00:00 16,1 10,6 11,0 20,3 17,4 5 3 21 12 ZW 1014,3 20 0 0,0
20.05.2018 04:00:00 17,0 11,0 14,1 20,4 17,4 13 7 26 14 WZW 1014,3 20 0 0,0
20.05.2018 03:00:00 16,9 11,4 13,8 20,4 17,4 16 9 26 14 ZW 1014,4 20 0 0,0
20.05.2018 02:00:00 17,0 12,1 12,7 20,5 17,4 12 6 20 11 ZW 1014,9 20 0 0,0
20.05.2018 01:00:00 16,3 13,0 10,9 20,5 17,4 8 5 11 6 ZW 1015,1 20 0 0,0
20.05.2018 00:00:00 15,4 12,9 10,8 20,5 17,4 4 2 9 5 WZW 1015,0 20 0 0,0
19.05.2018 23:00:00 15,7 13,4 11,9 20,4 17,4 5 3 9 5 ZW 1015,1 51 0 0,0
19.05.2018 22:00:00 16,8 13,3 12,6 20,3 17,4 6 4 9 5 ZW 1014,7 57 0 0,0
19.05.2018 21:00:00 18,8 14,9 14,3 20,2 17,4 3 2 21 11 WZW 1014,5 14 0 0,0
19.05.2018 20:00:00 21,5 11,5 20,9 20,0 17,4 11 6 22 12 NNO 1014,2 60 60 0,0
19.05.2018 19:00:00 22,8 11,2 26,1 19,9 17,4 5 3 18 10 N 1013,9 60 60 0,0
19.05.2018 18:00:00 23,0 11,7 29,6 19,7 17,4 8 4 28 15 N 1014,3 55 60 0,0
19.05.2018 17:00:00 23,4 12,7 31,9 19,6 17,4 10 5 21 12 NNO 1014,5 60 60 0,0
19.05.2018 16:00:00 23,5 13,7 32,9 19,4 17,4 11 6 33 18 NNO 1014,8 60 60 0,0
19.05.2018 15:00:00 23,5 12,5 33,7 19,3 17,3 11 6 26 14 NNO 1015,1 60 60 0,0
19.05.2018 14:00:00 23,5 13,4 33,3 19,3 17,3 10 5 34 19 N 1015,3 60 60 0,0
19.05.2018 13:00:00 23,5 12,5 31,3 19,3 17,3 13 7 23 12 NO 1015,8 60 60 0,0
19.05.2018 12:00:00 22,3 14,4 29,1 19,3 17,3 14 8 24 13 NNO 1016,1 60 60 0,0
19.05.2018 11:00:00 22,3 12,8 27,9 19,4 17,3 15 8 29 16 NNO 1015,9 60 60 0,0
19.05.2018 10:00:00 22,1 12,1 25,2 19,5 17,3 12 7 27 15 N 1015,6 60 60 0,0
19.05.2018 09:00:00 20,3 11,2 19,1 19,6 17,3 5 3 10 5 ZZW 1015,5 59 60 0,0
19.05.2018 08:00:00 17,4 12,1 12,8 19,6 17,3 6 4 10 5 ZW 1015,3 57 60 0,0
19.05.2018 07:00:00 14,3 10,9 9,8 19,7 17,3 8 4 11 6 ZZW 1015,0 57 41 0,0
19.05.2018 06:00:00 13,3 10,1 9,9 19,8 17,3 8 5 15 8 ZW 1014,7 60 0 0,0
19.05.2018 05:00:00 14,8 10,2 11,4 19,9 17,3 12 7 19 10 ZW 1014,7 60 0 0,0
19.05.2018 04:00:00 14,6 10,4 10,6 19,9 17,3 12 6 18 10 ZW 1014,8 60 0 0,0
19.05.2018 03:00:00 14,7 10,9 11,0 20,0 17,3 10 5 16 9 ZW 1015,2 60 0 0,0
19.05.2018 02:00:00 14,4 11,5 9,4 20,0 17,3 7 4 11 6 ZW 1015,6 48 0 0,0
19.05.2018 01:00:00 15,2 11,2 10,2 20,0 17,3 3 2 15 8 WZW 1015,9 20 0 0,0
19.05.2018 00:00:00 15,3 12,1 11,0 20,0 17,3 4 2 11 6 ZZW 1016,0 58 0 0,0
18.05.2018 23:00:00 14,8 13,0 11,1 19,9 17,3 4 2 10 5 WZW 1016,0 20 0 0,0
18.05.2018 22:00:00 15,5 13,3 12,3 19,8 17,3 6 4 11 6 ZZW 1015,6 20 0 0,0
18.05.2018 21:00:00 17,8 14,3 13,2 19,7 17,3 4 2 21 11 N 1015,0 20 0 0,0
18.05.2018 20:00:00 19,3 14,8 20,6 19,5 17,3 8 4 16 9 O 1014,7 42 58 0,0
18.05.2018 19:00:00 20,6 13,5 23,2 19,4 17,3 4 2 16 8 O 1014,6 59 60 0,0
18.05.2018 18:00:00 21,5 13,7 30,2 19,2 17,3 9 5 16 9 OZO 1014,6 60 60 0,0
18.05.2018 17:00:00 22,3 12,8 32,1 19,0 17,3 8 4 18 10 NO 1014,8 60 60 0,0
18.05.2018 16:00:00 22,3 12,0 31,5 18,9 17,3 9 5 20 11 NNO 1015,0 60 60 0,0
18.05.2018 15:00:00 21,7 12,5 31,6 18,8 17,3 12 7 24 13 NNO 1015,6 60 60 0,0
18.05.2018 14:00:00 21,2 14,1 31,9 18,8 17,3 16 8 28 15 NNO 1015,8 55 60 0,0
18.05.2018 13:00:00 21,0 14,4 31,6 18,7 17,2 14 7 24 13 NNO 1016,3 60 60 0,0
18.05.2018 12:00:00 21,1 14,7 31,2 18,7 17,2 13 7 22 12 NO 1016,3 60 60 0,0
18.05.2018 11:00:00 20,8 12,7 24,9 18,8 17,2 9 5 19 11 NO 1016,2 47 54 0,0
18.05.2018 10:00:00 20,6 14,0 24,1 18,9 17,2 4 2 11 6 N 1016,0 19 60 0,0
18.05.2018 09:00:00 18,8 14,3 18,1 19,0 17,2 5 3 11 6 ZZW 1016,0 46 60 0,0
18.05.2018 08:00:00 16,1 12,3 13,7 19,0 17,2 8 4 16 9 ZW 1016,0 35 60 0,0
18.05.2018 07:00:00 13,6 11,6 10,2 19,1 17,2 9 5 15 8 ZW 1016,0 44 40 0,0
18.05.2018 06:00:00 11,5 10,4 10,1 19,2 17,2 7 4 11 6 ZW 1015,8 29 0 0,0
18.05.2018 05:00:00 11,9 10,8 10,6 19,2 17,2 8 5 12 6 ZW 1015,8 20 0 0,0
18.05.2018 04:00:00 12,5 11,2 10,9 19,3 17,2 8 5 12 6 ZW 1015,8 29 0 0,0
18.05.2018 03:00:00 12,5 11,4 10,9 19,4 17,2 6 4 9 5 WZW 1016,0 32 0 0,0
18.05.2018 02:00:00 12,6 11,7 11,0 19,4 17,2 6 4 10 5 ZW 1015,9 29 0 0,2
18.05.2018 01:00:00 13,0 11,9 10,6 19,4 17,2 6 4 10 6 ZW 1016,3 18 0 0,0
18.05.2018 00:00:00 12,9 12,0 10,4 19,4 17,2 6 3 9 5 ZZW 1016,5 13 0 0,0
17.05.2018 23:00:00 13,9 12,9 12,1 19,3 17,2 5 3 8 5 ZW 1016,3 12 0 0,0
17.05.2018 22:00:00 15,0 13,7 12,0 19,3 17,3 5 3 9 5 ZW 1016,2 16 0 0,0
17.05.2018 21:00:00 16,5 14,5 12,6 19,1 17,2 4 2 11 6 Z 1015,7 26 0 0,0
17.05.2018 20:00:00 17,4 14,7 16,9 19,0 17,2 8 4 17 9 ZO 1015,3 34 3 0,0

tt = temperatuur
td = dauwpunt
tt 5cm = temperatuur 5cm
tt -20cm = temperatuur -20cm
tt -100cm = temperatuur -100cm
ff = windsnelheid
fx = windstoten
dd = windrichting
ppp = luchtdruk
vv = zicht
sd = Zonneschijnduur
rr = neerslag

Weerstations in de omgeving